Regional Weather Roundup
Issued by NWS Wakefield, VA

Home | Current Version | Previous Version | Text Only | Print | Product List | Glossary Off
Versions: 1 2 3 4 5 6 7 8 9 10 11 12 13 14 15 16 17 18 19 20 21 22 23 24 25 26 27 28 29 30 31 32 33 34 35 36 37 38 39 40 41 42 43 44 45 46 47 48 49 50

000
ASUS41 KAKQ 110215
RWRAKQ

REGIONAL WEATHER ROUNDUP
NATIONAL WEATHER SERVICE WAKEFIELD VA
900 PM EST SAT DEC 10 2016

Note: "fair" indicates few or no clouds below 12,000 feet with no
significant weather and/or obstructions to visibility. * = Denotes
station may not report precipitation (e.g., rain,snow,etc.),
thunder or fog.

VAZ042-051-052>054-056-110300-
NORTHERN VIRGINIA

CITY           SKY/WX    TMP DP  RH WIND       PRES   REMARKS
WASH NATIONAL  CLEAR     31  12  45 NW10      30.53S WCI  22
DULLES         CLEAR     26  11  52 NW6       30.52S
FORT BELVOIR   NOT AVBL
QUANTICO       CLEAR     30  13  49 CALM      30.55S
FREDERICKSBRG* CLEAR     30  16  56 CALM      30.53S
STAFFORD*      CLEAR     26  13  58 CALM      30.57S
WARRENTON      CLEAR     22  11  63 CALM      30.51F
CULPEPER*      CLEAR     23  15  70 CALM      30.53S
MANASSAS*      CLEAR    N/A N/A N/A N10       30.53S
LEESBURG*      CLEAR     28  19  69 NW3       30.53S
WINCHESTER     CLEAR     23  12  63 S5        30.50R
FRONT ROYAL*   FAIR      23  12  63 NW3       30.48F
LURAY*         FAIR      25  18  74 N5        30.48S
$$

VAZ048-049-060>072-079>083-110300-
CENTRAL AND SOUTH CENTRAL VIRGINIA

CITY           SKY/WX    TMP DP  RH WIND       PRES   REMARKS
RICHMOND       CLEAR     28  18  66 CALM      30.51S
CHESTERFIELD*  FAIR      25   1  36 CALM      30.52S
PETERSBURG*    CLEAR     22  18  85 CALM      30.52S
HANOVER        CLEAR     25  16  68 CALM      30.54R
TAPPAHANNOCK*  CLEAR     30  11  44 CALM      30.53R
QUINTON*       FAIR      26  18  72 CALM      30.51S
CHARLOTTSVILLE CLEAR     28  13  53 E7        30.47S
GORDONSVILLE*  FAIR      25  16  69 CALM      30.50S
ORANGE*          N/A     27  16  63 CALM      30.52S
LOUISA*        CLEAR     28  18  64 CALM      30.49S
BUMPASS*       FAIR      28  13  52 N3        30.51S
FARMVILLE*     CLEAR     22  18  84 CALM      30.48S
CREWE*         FAIR      24  19  80 CALM      30.50S
FORT PICKETT*  FAIR      27   9  46 N3        30.50S
CHASE CITY*    FAIR      25  16  69 CALM      30.49F
CLARKSVILLE*   FAIR      27  19  74 CALM      30.49F
SOUTH HILL*    CLEAR     24  19  80 CALM      30.56R
LAWRENCEVILLE* FAIR      26  17  70 CALM      30.50F
EMPORIA*       CLEAR     25  19  80 CALM      30.54S
$$

VAZ088>098-110300-
SOUTHEAST VIRGINIA

CITY           SKY/WX    TMP DP  RH WIND       PRES   REMARKS
NORFOLK        CLEAR     36  16  44 NW5       30.51R
VIRGINIA BEACH PTCLDY    26  17  68 CALM      30.51R
NORFOLK NAVAL  CLEAR     35  19  52 N8        30.52S
WEST POINT*    CLEAR     24  18  76 CALM      30.53S
SALUDA*        FAIR      33  18  55 N7        30.51S
NEWPORT NEWS   CLEAR     26  18  71 CALM      30.51F
LANGLEY AFB    CLEAR     28  20  71 NW3       30.50S
FORT EUSTIS    CLEAR     28  17  64 CALM      30.48F
WILLIAMSBURG*  CLEAR     28  23  80 CALM      30.52S
HR EXEC AP*    FAIR      21  18  86 CALM      30.50F
FRANKLIN*      CLEAR     25  18  74 CALM      30.53S
US460-WAKEFLD  CLEAR     25  18  74 CALM      30.52S
$$

VAZ020-022-025-037-045-110300-
WEST CENTRAL AND SOUTHWEST VIRGINIA

CITY           SKY/WX    TMP DP  RH WIND       PRES   REMARKS
STAUNTON*      CLEAR     24  12  62 NE5       30.47F
WAYNESBORO*    FAIR      24   9  52 CALM      30.44S
HOT SPRINGS VA CLEAR     19   5  53 W6        30.27S
LYNCHBURG      CLOUDY    24  16  71 CALM      30.48R
DANVILLE       CLEAR     25  17  72 CALM      30.49S
SOUTH BOSTON*  FAIR      25  13  61 CALM      30.50S
MARTINSVILLE   CLEAR     24  14  68 CALM      30.49S
ROANOKE        CLEAR     29  11  47 CALM      30.47R
BLACKSBURG     CLEAR     23  13  64 CALM      30.43S
DUBLIN*        CLEAR     28  10  46 CALM      30.41F
MARION*        MOCLDY    22  14  70 CALM      30.41F
HILLSVILLE*    CLEAR     26  11  53 CALM      30.37S
RICHLANDS*     MOCLDY    24  13  63 S5        30.37F
WISE*          CLOUDY    28  14  54 CALM      30.37F
ABINGDON*      PTCLDY    26  15  63 E5        30.40F
$$

MDZ021>025-VAZ099-100-110300-
SOUTHERN MARYLAND AND THE DELMARVA PENINSULA

CITY           SKY/WX    TMP DP  RH WIND       PRES   REMARKS
PATUXENT RIVER CLEAR     31  15  52 N13       30.52S WCI  21
BAY BRIDGE APT CLEAR     30  14  51 MISG      30.51F
LEONARDTOWN    CLEAR     28  14  54 CALM      30.53S
DOVER          CLEAR     29  17  59 W3        30.49S
GEORGETOWN     PTCLDY    30  15  53 CALM      30.51S
EASTON         CLEAR     30  14  51 NW7       30.55S
CAMBRIDGE      CLEAR     32  16  51 NW5       30.51S
SALISBURY      PTCLDY    28  16  60 NW5       30.51S
OCEAN CITY     CLEAR     28  16  60 NW5       30.51S
WALLOPS ISLAND CLEAR     29  17  61 N3        30.51F
ACCOMACK*      CLEAR     30  20  67 NE3       30.51S
$$

NCZ012>017-030>032-110300-
NORTH CENTRAL AND EASTERN NORTH CAROLINA

CITY           SKY/WX    TMP DP  RH WIND       PRES   REMARKS
ROANOKE RAPIDS FAIR      27  21  80 SW3       30.52S
RALEIGH        PTCLDY    29  16  58 CALM      30.50F
ELIZABETH CITY CLEAR     28  22  78 CALM      30.52R
AHOSKIE*       CLEAR     26  20  76 CALM      30.53S
EDENTON*       NOT AVBL
CURRITUCK*     CLEAR     30  23  75 CALM      30.52S
KILL DEVIL HLS CLEAR     35  22  60 CALM      30.50S
MANTEO         CLEAR     36  20  51 N7        30.52R
CAPE HATTERAS  CLEAR     39  19  44 NW6       30.51R
TARBORO*       NOT AVBL
GOLDSBORO      CLEAR     29  20  70 CALM      30.51R
WASHINGTON     PTCLDY    28  21  76 CALM      30.53S
GREENVILLE     CLEAR     28  25  86 CALM      30.52S
NEW BERN       CLEAR     28  21  75 CALM      30.54R
WILMINGTON     CLEAR     29  23  78 N5        30.52F
$$

VAZ048-110300-
ELSEWHERE

CITY           SKY/WX    TMP DP  RH WIND       PRES   REMARKS
HARRISBURG PA  CLEAR     28  16  60 W8        30.48S
BALTIMORE      CLEAR     27  12  53 W5        30.51S
ANNAPOLIS      CLEAR     32  14  47 W7        30.52S
ANDREWS AFB    CLEAR     28  11  48 NW12      30.49F WCI  18
PHILADELPHIA   CLEAR     31  14  49 W8        30.49S
HENDERSON NC   CLEAR     26  14  60 CALM      30.49S
GREENSBORO     CLEAR     31  17  56 CALM      30.46S
ROCKY MOUNT    CLEAR     27  20  75 CALM      30.53R
$$

VAZ100-110300-
MARINE

STATION/POSITION TIME  TEMP    WIND        PRES    WAVE   SWELL
                       AIR SEA DIR/SP/G            HT/PER HT/PER
                 (UTC) (F)     (DEG/KT/KT) (MB)    (FT/S) (FT/S)
BRANDYWINE LGT   0148   34     330/ 15/ 20   N/A
CAPE MAY NJ      0148   35 40  340/ 11/ 18 1032.2R
LEWES DE         0148   32 44  280/  8/ 10 1033.0R
OCEAN-CITY-INLET 0148          320/  7/  8   N/A
WACHAPREAGUE VA  0148   31 41  360/  1/  2 1033.0F
THOMAS POINT MD  0100   33 45  310/ 11/ 13   N/A
GOOSES REEF MD   0200   34 47  310/ 12/ 16 1034.2    2/ 3
COVE POINT MD    0148   33     350/ 15/ 19 1034.0S
SOLOMONS ISLAND  0148          340/  7/ 10   N/A
BISHOPS HEAD MD  0148   29 36  330/  5/  5 1033.6F
PINEY POINT MD   0148           10/  9/ 10   N/A
POTOMAC MD       0200   33 47  350/ 10/ 12 1032.8    1
CAMBRIDGE MD     0148   34 42  320/  8/ 11 1032.7F
LEWISETTA VA     0148   34 43   10/  8/ 12 1033.2F
RAPPAHANNOCK LGT 0148          340/ 11/ 13 1033.3F
STINGRAY PT      0200   36     360/ 12/ 16 1033.7    1/ 2
YORK RVR RNG VA  0148   37     320/  8/ 10 1032.9R
YORKTOWN VA      0148   37 47  330/  4/  6 1032.9S
JAMESTOWN VA     0200   33 48   CALM  /  2   N/A     0
DOMINION TERM VA 0148   36      20/  5/  6 1033.2F
KIPTOPEKE VA     0148      48  350/ 11/ 14   N/A
CHES BAY BRIDGE  0148   38 50  340/ 10/ 12 1032.9S
CAPE HENRY VA    0148   38     320/  9/ 13   N/A
WILLOUBY STN VA  0148   38     350/  9/ 10 1034.1R
S CRANEY ISL VA  0148   37     340/  5/  9 1032.9R
CAPE HENRY BUOY  0142      53                N/A     2/ 3
1ST LANDING BUOY 0200   39 49              1033.4    1/ 3
CAPE CHARLES BUO 0156      51                N/A     2/ 3
OFFSHORE WE BUOY 0151      54                N/A     2/ 6
64NM E OF VA BCH 0150   41 58  320/ 14/ 17 1032.3S   3/ 4   2/ 9
DUCK PIER NC     0148   38 51  320/  8/  9 1032.8R
44100 DUCK FRF   0135      54                N/A     3/ 7
OREGON INLET NC  0148          330/  5/  7   N/A
HATTERAS NC      0148   41 52  320/ 10/ 13 1032.6R
DIAMOND SHLS NC  0150   44 77  350/ 12/ 17 1033.0R   4/ 8   3/ 8
CAPE LOOKOUT NC  0100   41     340/ 11/ 12 1033.0R
$$



USA.gov is the U.S. government's official web portal to all federal, state and local government web resources and services.